sat.trackr.live / text

‹ back to catalog

ONEWEB-0185

NORAD 48220 · 2021-031L

PAYLOAD ACTIVE UNKNOWN

§ Identity

Operator
Country
UK
Launch date
2021-04-25
Launch site
VOSTO
Launch vehicle
Mass (kg)
RCS (m²)

Purposes: comms

External: N2YO · Heavens-Above · Gunter

§ Orbital elements

Epoch: 2026-09-09T00:33:52.742304Z

Period
109.55 min
Inclination
87.8902°
Eccentricity
0.0001605
Mean motion
13.14503057 rev/d
Perigee alt
1,204.6 km
Apogee alt
1,207.0 km
Semi-major
7,583.9 km
B*
-2.5963e-4
RAAN
272.9857°
Arg perigee
101.2045°
Mean anomaly
258.9265°
Rev number
25,926

§ Raw data

ONEWEB-01851 48220U 21031L   26252.02352711 -.00000083  00000+0 -25963-3 0  99912 48220  87.8902 272.9857 0001605 101.2045 258.9265 13.14503057259267

JSON: /api/v1/satellites/48220 · /tle

For live sub-satellite position, see the globe view (requires WebGL).

§ Visibility from observer

Set your observer location to see the next 7 days of passes ≥ 10°. The values pass through the URL so the page stays shareable.

No JS? Fill the form by hand. The geolocation button needs JavaScript.